Retour au catalogue

THORAD AGENA D DEB

ActifLEO
NORAD 17658·DEBRIS·🇺🇸 United States

Lancé Sep 30, 1969 depuis Vandenberg Space Force Base

Loading…

Prochains Passages (prochaines 24 heures)

TLE

FraisSource: Space-Track

Époque: Sep 13, 2026, 20:09 UTC

1 17658U 69082KU  26256.83990142  .00000278  00000-0  22757-3 0  9992
2 17658  70.3561 282.3722 0055492 178.9678 355.5348 13.98153222583519

Suivez THORAD AGENA D DEB en temps réel avec AllMySat

Download on the App Store